Flag for Netherlands Weather past 2 weeks in Eindhoven, Netherlands

Now
54 °F

Fog.


Feels Like: 53 °F
Forecast: 47 / 66 °F
Wind: 5 mph from Southwest

Location: Eindhoven Airport

Current Time: Aug 31, 2014 at 7:18:04 AM

Latest Report: Aug 31, 2014 at 6:55 AM


Visibility: 3 mi

Pressure: 29.95 "Hg

Humidity: 100%

Dew point: 54 °F

Location of EindhovenLocation

Historic Weather in Eindhoven — Graph

°F

Eindhoven temperature yesterday

Maximum temperature yesterday: 66 °F (at 3:56 PM)
Minimum temperature yesterday: 55 °F (at 10:25 PM)
Average temperature yesterday: 61 °F

Past Weeks' High & Low Weather Summary

 TemperatureHumidityPressure
High72 °F (Aug 28, 3:55 PM)100% (Aug 16, 5:25 AM)30.09 "Hg (Aug 16, 5:25 AM)
Low45 °F (Aug 20, 1:55 AM)46% (Aug 21, 2:55 PM)29.62 "Hg (Aug 26, 2:55 AM)
Average58 °F85%29.92 "Hg
* Reported Aug 16 5:25 AM — Aug 31 5:55 AM, Eindhoven, Weather by CustomWeather, © 2014

Note: Actual official high and low records may vary slightly from our data, if they occured in-between our weather recording intervals... More about our weather records

Advertising

Eindhoven weather history for previous 24 hours

 ConditionsComfort  
Time TempWeatherWind HumidityBarometerVisibility
5:55 AM
Aug 31
54 °FFog.6 mph100%29.95 "Hg4 mi
5:25 AM55 °FFog.6 mph100%29.95 "Hg6 mi
4:55 AM55 °FOvercast.6 mph100%29.95 "HgN/A
4:25 AM55 °FFog.7 mph100%29.95 "Hg6 mi
3:55 AM54 °FFog.6 mph100%29.95 "Hg5 mi
3:25 AM55 °FFog.7 mph100%29.95 "Hg5 mi
2:55 AM55 °FFog.6 mph100%29.98 "Hg4 mi
2:25 AM55 °FFog.6 mph100%29.98 "Hg4 mi
1:55 AM55 °FFog.6 mph100%29.98 "Hg6 mi
1:25 AM55 °FPassing clouds.6 mph100%29.98 "HgN/A
12:55 AM55 °FOvercast.6 mph100%29.98 "HgN/A
12:25 AM57 °FPassing clouds.7 mph94%29.98 "HgN/A
11:55 PM
Aug 30
55 °FOvercast.3 mph100%29.98 "HgN/A
11:25 PM55 °FMostly cloudy.3 mph94%29.98 "HgN/A
10:55 PM55 °FPassing clouds.2 mph94%29.98 "HgN/A
10:25 PM55 °FPassing clouds.5 mph88%30.01 "HgN/A
9:55 PM57 °FOvercast.5 mph88%29.98 "HgN/A
9:25 PM57 °FMostly cloudy.6 mph88%29.98 "HgN/A
8:55 PM59 °FOvercast.5 mph82%29.98 "HgN/A
7:55 PM61 °FPartly sunny.5 mph83%29.98 "HgN/A
7:25 PM61 °FOvercast.8 mph83%29.98 "HgN/A
6:55 PM63 °FPartly sunny.8 mph83%29.98 "HgN/A
6:25 PM63 °FBroken clouds.6 mph88%29.98 "HgN/A
6:01 PM63 °FCloudy.8 mph88%29.98 "HgN/A
5:25 PM63 °FMostly cloudy.10 mph94%29.95 "HgN/A
4:55 PM63 °FMore clouds than sun.9 mph94%29.98 "HgN/A
4:25 PM61 °FRain showers. Mostly cloudy.14 mph88%29.98 "Hg4 mi
3:56 PM66 °FBroken clouds.13 mph83%29.95 "HgN/A
3:25 PM64 °FPartly sunny.10 mph88%29.98 "HgN/A
2:55 PM64 °FMostly cloudy.14 mph88%29.98 "HgN/A
2:25 PM64 °FMostly cloudy.17 mph88%29.98 "HgN/A
2:01 PM64 °FBroken clouds.13 mph88%29.98 "HgN/A
1:55 PM63 °FMostly cloudy.14 mph94%29.98 "HgN/A
1:25 PM64 °FCloudy.13 mph83%29.98 "HgN/A
1:00 PM64 °FMostly cloudy.14 mph88%29.98 "HgN/A
12:25 PM63 °FLight rain. Mostly cloudy.13 mph94%29.98 "HgN/A
11:55 AM63 °FMostly cloudy.13 mph94%29.98 "HgN/A
11:25 AM61 °FSprinkles. Cloudy.13 mph94%29.98 "Hg2 mi
11:01 AM61 °FDrizzle. Partly sunny.13 mph94%29.98 "Hg2 mi
10:25 AM63 °FDrizzle. Partly sunny.13 mph88%29.98 "HgN/A
9:56 AM63 °FMostly cloudy.13 mph88%29.98 "HgN/A
9:25 AM63 °FMostly cloudy.12 mph83%29.98 "HgN/A
9:00 AM63 °FMore clouds than sun.13 mph83%29.98 "HgN/A
8:55 AM63 °FMostly cloudy.13 mph83%29.98 "HgN/A
8:25 AM61 °FMostly cloudy.12 mph88%29.98 "HgN/A
7:55 AM61 °FBroken clouds.12 mph88%29.98 "HgN/A
7:25 AM61 °FPassing clouds.12 mph88%29.98 "HgN/A
Weather by CustomWeather, © 2014

See weather overviewHow to use our weather pages